NJE784T ESSA-EDRY

Flight info

Callsign NJE784T
Flight time 1h 57m
Altitude 40000
Route NOSLI N850 GISEM Z10 RUDUS DCT BOLKI DCT NORFE
Aircraft CL60/M-SBDE1E2E3FGHIJ1J4J5J7M3RWXYZ/LB1V1D1

Departure

Time 2026-05-06 13:18
Airport Stockholm-Arlanda Airport (ESSA)

Arrival

Time 2026-05-06 15:15
Airport Speyer Airfield (EDRY)
Time Latitude Longitude Altitude Speed Heading
2026-05-06 12:51 59.65816 17.95994 145 ft 0 kts 161°
2026-05-06 13:11 59.65817 17.95956 145 ft 15 kts 10°
2026-05-06 13:12 59.65939 17.95977 145 ft 19 kts 349°
2026-05-06 13:12 59.65944 17.95907 145 ft 7 kts 244°
2026-05-06 13:12 59.65922 17.95790 145 ft 10 kts 259°
2026-05-06 13:12 59.65906 17.95624 145 ft 14 kts 258°
2026-05-06 13:13 59.65889 17.95493 145 ft 10 kts 255°
2026-05-06 13:13 59.65865 17.95326 145 ft 14 kts 253°
2026-05-06 13:13 59.65835 17.95116 145 ft 17 kts 256°
2026-05-06 13:13 59.65810 17.94866 145 ft 20 kts 257°
2026-05-06 13:14 59.65791 17.94731 145 ft 0 kts 248°
2026-05-06 13:14 59.65758 17.94687 145 ft 11 kts 208°
2026-05-06 13:14 59.65687 17.94541 145 ft 18 kts 254°
2026-05-06 13:14 59.65655 17.94275 145 ft 21 kts 256°
2026-05-06 13:15 59.65619 17.93976 145 ft 23 kts 257°
2026-05-06 13:15 59.65579 17.93650 145 ft 19 kts 257°
2026-05-06 13:15 59.65537 17.93372 145 ft 22 kts 254°
2026-05-06 13:15 59.65506 17.93151 145 ft 14 kts 255°
2026-05-06 13:16 59.65479 17.92936 145 ft 17 kts 258°
2026-05-06 13:16 59.65444 17.92690 145 ft 19 kts 262°
2026-05-06 13:16 59.65552 17.92543 145 ft 21 kts 338°
2026-05-06 13:16 59.65671 17.92460 145 ft 19 kts 344°
2026-05-06 13:17 59.65758 17.92433 145 ft 8 kts 357°
2026-05-06 13:17 59.65831 17.92433 145 ft 12 kts 354°
2026-05-06 13:17 59.65906 17.92330 145 ft 15 kts 285°
2026-05-06 13:17 59.65917 17.92141 145 ft 16 kts 243°
2026-05-06 13:18 59.65729 17.92044 145 ft 62 kts 190°
2026-05-06 13:18 59.64963 17.91760 162 ft 157 kts 191°
2026-05-06 13:18 59.63850 17.91313 1090 ft 170 kts 192°
2026-05-06 13:18 59.62807 17.90908 2602 ft 154 kts 187°
2026-05-06 13:19 59.61762 17.90645 3554 ft 172 kts 188°
2026-05-06 13:19 59.60568 17.89622 4078 ft 195 kts 223°
2026-05-06 13:19 59.59887 17.87415 4810 ft 195 kts 251°
2026-05-06 13:19 59.59409 17.84818 5173 ft 213 kts 247°
2026-05-06 13:20 59.58826 17.82085 5292 ft 212 kts 246°
2026-05-06 13:20 59.58214 17.79427 5063 ft 214 kts 244°
2026-05-06 13:20 59.57454 17.76865 4908 ft 211 kts 233°
2026-05-06 13:20 59.56478 17.74821 4960 ft 200 kts 221°
2026-05-06 13:21 59.55381 17.73219 4875 ft 194 kts 210°
2026-05-06 13:21 59.54192 17.72010 4767 ft 202 kts 206°
2026-05-06 13:21 59.52858 17.70692 5512 ft 224 kts 207°
2026-05-06 13:21 59.51428 17.69271 6704 ft 245 kts 208°
2026-05-06 13:22 59.49889 17.67740 8057 ft 258 kts 208°
2026-05-06 13:22 59.48311 17.66170 9512 ft 266 kts 209°
2026-05-06 13:22 59.46673 17.64542 11021 ft 271 kts 210°
2026-05-06 13:22 59.45019 17.62899 12516 ft 272 kts 211°
2026-05-06 13:23 59.43327 17.61212 13549 ft 289 kts 212°
2026-05-06 13:23 59.41390 17.59261 13610 ft 337 kts 212°
2026-05-06 13:23 59.39232 17.57108 14108 ft 363 kts 211°
2026-05-06 13:23 59.36944 17.54843 15006 ft 375 kts 211°
2026-05-06 13:24 59.34618 17.52548 16175 ft 378 kts 211°
2026-05-06 13:24 59.32307 17.50271 17219 ft 382 kts 212°
2026-05-06 13:24 59.29925 17.47922 17763 ft 388 kts 211°
2026-05-06 13:24 59.27512 17.45550 17981 ft 390 kts 212°
2026-05-06 13:25 59.25048 17.43126 18385 ft 404 kts 211°
2026-05-06 13:25 59.22572 17.40703 19681 ft 396 kts 211°
2026-05-06 13:25 59.20197 17.38390 21369 ft 377 kts 212°
2026-05-06 13:25 59.17942 17.36194 22753 ft 365 kts 212°
2026-05-06 13:26 59.15667 17.33972 23686 ft 364 kts 212°
2026-05-06 13:26 59.13571 17.31924 24395 ft 367 kts 211°
2026-05-06 13:26 59.11290 17.29698 25191 ft 370 kts 211°
2026-05-06 13:26 59.08982 17.27451 25938 ft 373 kts 211°
2026-05-06 13:27 59.06756 17.24975 26618 ft 371 kts 219°
2026-05-06 13:27 59.04739 17.21781 27187 ft 374 kts 222°
2026-05-06 13:27 59.02760 17.18563 27872 ft 375 kts 222°
2026-05-06 13:27 59.00769 17.15340 28473 ft 377 kts 221°
2026-05-06 13:28 58.98743 17.12069 28993 ft 380 kts 221°
2026-05-06 13:28 58.96727 17.08820 29554 ft 381 kts 221°
2026-05-06 13:28 58.94677 17.05521 30040 ft 383 kts 220°
2026-05-06 13:28 58.92645 17.02257 30305 ft 389 kts 220°
2026-05-06 13:29 58.90562 16.98919 30672 ft 391 kts 220°
2026-05-06 13:29 58.88481 16.95589 31165 ft 390 kts 220°
2026-05-06 13:29 58.86401 16.92268 31460 ft 393 kts 221°
2026-05-06 13:29 58.84285 16.88895 31762 ft 394 kts 221°
2026-05-06 13:30 58.82168 16.85526 32028 ft 396 kts 220°
2026-05-06 13:30 58.80049 16.82159 32241 ft 399 kts 220°
2026-05-06 13:30 58.77906 16.78761 32422 ft 402 kts 220°
2026-05-06 13:30 58.75742 16.75334 32611 ft 404 kts 220°
2026-05-06 13:31 58.73587 16.71929 32772 ft 406 kts 221°
2026-05-06 13:31 58.71410 16.68495 33001 ft 406 kts 220°
2026-05-06 13:31 58.69235 16.65070 33101 ft 410 kts 220°
2026-05-06 13:31 58.67036 16.61612 33233 ft 411 kts 220°
2026-05-06 13:32 58.64800 16.58104 33434 ft 412 kts 220°
2026-05-06 13:32 58.62609 16.54672 33587 ft 413 kts 220°
2026-05-06 13:32 58.60363 16.51159 33625 ft 416 kts 220°
2026-05-06 13:33 58.55903 16.44202 33925 ft 416 kts 219°
2026-05-06 13:33 58.53667 16.40725 34430 ft 409 kts 220°
2026-05-06 13:33 58.51495 16.37351 35175 ft 397 kts 220°
2026-05-06 13:33 58.49396 16.34097 35545 ft 389 kts 219°
2026-05-06 13:34 58.47322 16.30886 35780 ft 388 kts 219°
2026-05-06 13:34 58.45206 16.27614 35904 ft 390 kts 220°
2026-05-06 13:34 58.43107 16.24375 36048 ft 392 kts 220°
2026-05-06 13:34 58.40995 16.21120 36187 ft 394 kts 220°
2026-05-06 13:35 58.38874 16.17858 36305 ft 395 kts 220°
2026-05-06 13:35 58.36729 16.14562 36480 ft 397 kts 220°
2026-05-06 13:35 58.34580 16.11267 36701 ft 399 kts 220°
2026-05-06 13:35 58.32446 16.07999 36855 ft 400 kts 220°
2026-05-06 13:36 58.30264 16.04663 37031 ft 401 kts 220°
2026-05-06 13:36 58.28111 16.01379 37211 ft 402 kts 220°
2026-05-06 13:36 58.25936 15.98064 37383 ft 404 kts 220°
2026-05-06 13:36 58.23743 15.94729 37568 ft 405 kts 220°
2026-05-06 13:37 58.21536 15.91378 37734 ft 406 kts 220°
2026-05-06 13:37 58.19350 15.88063 37891 ft 407 kts 220°
2026-05-06 13:37 58.17139 15.84716 38036 ft 408 kts 220°
2026-05-06 13:37 58.14945 15.81401 38226 ft 408 kts 220°
2026-05-06 13:38 58.12711 15.78032 38384 ft 409 kts 220°
2026-05-06 13:38 58.10500 15.74701 38507 ft 411 kts 221°
2026-05-06 13:38 58.08297 15.71388 38638 ft 411 kts 221°
2026-05-06 13:38 58.06048 15.68011 38754 ft 413 kts 220°
2026-05-06 13:39 58.03799 15.64640 38877 ft 414 kts 221°
2026-05-06 13:39 58.01571 15.61307 39005 ft 414 kts 221°
2026-05-06 13:39 57.99313 15.57934 39149 ft 414 kts 221°
2026-05-06 13:39 57.97059 15.54571 39302 ft 415 kts 221°
2026-05-06 13:40 57.94803 15.51210 39390 ft 416 kts 220°
2026-05-06 13:40 57.92551 15.47862 39555 ft 415 kts 221°
2026-05-06 13:40 57.90274 15.44482 39649 ft 415 kts 221°
2026-05-06 13:40 57.88010 15.41125 39768 ft 416 kts 220°
2026-05-06 13:41 57.85763 15.37801 39853 ft 417 kts 221°
2026-05-06 13:41 57.81222 15.31097 39912 ft 421 kts 220°
2026-05-06 13:42 57.76613 15.24316 39920 ft 421 kts 220°
2026-05-06 13:42 57.72046 15.17620 39912 ft 419 kts 219°
2026-05-06 13:43 57.67463 15.10922 39896 ft 418 kts 220°
2026-05-06 13:43 57.62904 15.04282 39904 ft 419 kts 220°
2026-05-06 13:44 57.58336 14.97656 39911 ft 419 kts 220°
2026-05-06 13:44 57.53728 14.90993 39893 ft 419 kts 220°
2026-05-06 13:45 57.49139 14.84380 39901 ft 418 kts 220°
2026-05-06 13:45 57.42281 14.74537 39898 ft 418 kts 220°
2026-05-06 13:46 57.37689 14.67971 39901 ft 419 kts 219°
2026-05-06 13:46 57.33086 14.61413 39884 ft 419 kts 219°
2026-05-06 13:47 57.28494 14.54891 39887 ft 419 kts 219°
2026-05-06 13:47 57.23859 14.48328 39896 ft 421 kts 219°
2026-05-06 13:48 57.19226 14.41791 39902 ft 421 kts 219°
2026-05-06 13:48 57.14601 14.35282 39890 ft 421 kts 219°
2026-05-06 13:49 57.09972 14.28770 39909 ft 421 kts 219°
2026-05-06 13:49 57.05339 14.22275 39904 ft 420 kts 219°
2026-05-06 13:50 57.00731 14.15850 39903 ft 420 kts 219°
2026-05-06 13:50 56.96069 14.09379 39896 ft 421 kts 219°
2026-05-06 13:51 56.91431 14.02962 39892 ft 422 kts 219°
2026-05-06 13:51 56.86743 13.96496 39880 ft 422 kts 219°
2026-05-06 13:52 56.82093 13.90103 39896 ft 422 kts 219°
2026-05-06 13:52 56.77406 13.83680 39887 ft 422 kts 219°
2026-05-06 13:53 56.72721 13.77275 39887 ft 422 kts 219°
2026-05-06 13:53 56.68053 13.70913 39899 ft 422 kts 218°
2026-05-06 13:54 56.63375 13.64555 39901 ft 423 kts 218°
2026-05-06 13:54 56.58650 13.58155 39897 ft 424 kts 218°
2026-05-06 13:55 56.53965 13.51829 39909 ft 424 kts 218°
2026-05-06 13:55 56.49234 13.45461 39907 ft 424 kts 218°
2026-05-06 13:56 56.44534 13.39155 39910 ft 424 kts 218°
2026-05-06 13:56 56.39797 13.32819 39919 ft 424 kts 217°
2026-05-06 13:57 56.35052 13.26492 39907 ft 425 kts 217°
2026-05-06 13:57 56.30328 13.20214 39934 ft 425 kts 217°
2026-05-06 13:58 56.25606 13.13959 39925 ft 426 kts 217°
2026-05-06 13:58 56.20837 13.07660 39931 ft 426 kts 217°
2026-05-06 13:59 56.16090 13.01410 39930 ft 427 kts 218°
2026-05-06 13:59 56.11317 12.95146 39934 ft 427 kts 217°
2026-05-06 14:00 56.06550 12.88908 39927 ft 427 kts 218°
2026-05-06 14:00 56.01767 12.82671 39931 ft 427 kts 217°
2026-05-06 14:01 55.96995 12.76470 39921 ft 427 kts 217°
2026-05-06 14:01 55.92174 12.70233 39903 ft 427 kts 217°
2026-05-06 14:02 55.87403 12.64076 39903 ft 427 kts 217°
2026-05-06 14:02 55.82594 12.57886 39911 ft 427 kts 217°
2026-05-06 14:03 55.77797 12.51749 39929 ft 428 kts 216°
2026-05-06 14:03 55.72751 12.46125 39940 ft 428 kts 213°
2026-05-06 14:04 55.67720 12.40631 39944 ft 429 kts 213°
2026-05-06 14:04 55.62628 12.35084 39942 ft 429 kts 213°
2026-05-06 14:05 55.57546 12.29563 39928 ft 429 kts 213°
2026-05-06 14:05 55.52507 12.24103 39936 ft 430 kts 213°
2026-05-06 14:06 55.47430 12.18618 39939 ft 429 kts 213°
2026-05-06 14:06 55.42356 12.13152 39911 ft 429 kts 213°
2026-05-06 14:07 55.37276 12.07694 39901 ft 431 kts 212°
2026-05-06 14:07 55.32163 12.02218 39893 ft 431 kts 213°
2026-05-06 14:08 55.27068 11.96778 39897 ft 430 kts 213°
2026-05-06 14:08 55.21984 11.91365 39908 ft 430 kts 212°
2026-05-06 14:09 55.16850 11.86124 39904 ft 430 kts 211°
2026-05-06 14:09 55.11639 11.80916 39903 ft 431 kts 211°
2026-05-06 14:10 55.06450 11.75744 39896 ft 432 kts 211°
2026-05-06 14:10 55.01271 11.70597 39895 ft 432 kts 211°
2026-05-06 14:11 54.96078 11.65449 39888 ft 432 kts 211°
2026-05-06 14:11 54.90870 11.60301 39898 ft 433 kts 211°
2026-05-06 14:12 54.85648 11.55155 39893 ft 433 kts 211°
2026-05-06 14:12 54.80407 11.50005 39891 ft 432 kts 211°
2026-05-06 14:13 54.75207 11.44911 39883 ft 432 kts 211°
2026-05-06 14:13 54.70013 11.39780 39886 ft 432 kts 212°
2026-05-06 14:14 54.64830 11.34566 39881 ft 432 kts 211°
2026-05-06 14:14 54.59624 11.29346 39877 ft 432 kts 211°
2026-05-06 14:15 54.54368 11.24174 39876 ft 433 kts 208°
2026-05-06 14:15 54.48832 11.20023 39875 ft 434 kts 205°
2026-05-06 14:16 54.43282 11.15957 39873 ft 434 kts 204°
2026-05-06 14:16 54.37727 11.11896 39877 ft 434 kts 204°
2026-05-06 14:17 54.32217 11.07879 39885 ft 434 kts 205°
2026-05-06 14:17 54.26664 11.03841 39866 ft 434 kts 204°
2026-05-06 14:18 54.21137 10.99832 39869 ft 434 kts 205°
2026-05-06 14:18 54.15570 10.95806 39876 ft 434 kts 205°
2026-05-06 14:19 54.10048 10.91823 39858 ft 434 kts 205°
2026-05-06 14:19 54.04478 10.87816 39862 ft 435 kts 205°
2026-05-06 14:20 53.98906 10.83820 39885 ft 435 kts 205°
2026-05-06 14:20 53.93343 10.79842 39888 ft 435 kts 204°
2026-05-06 14:21 53.87751 10.75854 39887 ft 436 kts 204°
2026-05-06 14:21 53.82177 10.71891 39888 ft 436 kts 205°
2026-05-06 14:22 53.76638 10.67964 39889 ft 436 kts 204°
2026-05-06 14:22 53.71021 10.63993 39889 ft 435 kts 205°
2026-05-06 14:23 53.65467 10.60078 39879 ft 435 kts 205°
2026-05-06 14:23 53.59869 10.56143 39870 ft 435 kts 205°
2026-05-06 14:24 53.54259 10.52210 39857 ft 436 kts 204°
2026-05-06 14:24 53.48701 10.48326 39840 ft 436 kts 204°
2026-05-06 14:25 53.43073 10.44404 39835 ft 436 kts 204°
2026-05-06 14:25 53.37514 10.40541 39821 ft 436 kts 204°
2026-05-06 14:26 53.31921 10.36665 39841 ft 436 kts 204°
2026-05-06 14:26 53.26332 10.32803 39848 ft 436 kts 204°
2026-05-06 14:27 53.20689 10.28915 39820 ft 436 kts 204°
2026-05-06 14:27 53.15099 10.25074 39829 ft 436 kts 204°
2026-05-06 14:28 53.09531 10.21259 39836 ft 435 kts 204°
2026-05-06 14:28 53.03931 10.17433 39835 ft 435 kts 204°
2026-05-06 14:29 52.98308 10.13601 39832 ft 436 kts 204°
2026-05-06 14:29 52.92717 10.09802 39833 ft 436 kts 204°
2026-05-06 14:30 52.87049 10.05962 39833 ft 437 kts 203°
2026-05-06 14:30 52.81465 10.02190 39835 ft 437 kts 203°
2026-05-06 14:31 52.75817 9.98385 39836 ft 436 kts 204°
2026-05-06 14:31 52.70188 9.94603 39834 ft 435 kts 204°
2026-05-06 14:32 52.64563 9.90835 39836 ft 435 kts 204°
2026-05-06 14:32 52.58991 9.87112 39832 ft 435 kts 204°
2026-05-06 14:33 52.53392 9.83381 39834 ft 435 kts 204°
2026-05-06 14:33 52.47767 9.79643 39833 ft 436 kts 204°
2026-05-06 14:34 52.42199 9.75954 39835 ft 436 kts 203°
2026-05-06 14:34 52.36558 9.72227 39806 ft 437 kts 203°
2026-05-06 14:35 52.33700 9.70341 39459 ft 444 kts 203°
2026-05-06 14:35 52.30861 9.68470 39005 ft 443 kts 204°
2026-05-06 14:35 52.28001 9.66587 38522 ft 440 kts 204°
2026-05-06 14:35 52.25204 9.64748 38037 ft 437 kts 203°
2026-05-06 14:36 52.22391 9.62902 37541 ft 436 kts 203°
2026-05-06 14:36 52.19590 9.61065 37033 ft 435 kts 204°
2026-05-06 14:36 52.16771 9.59218 36533 ft 435 kts 203°
2026-05-06 14:36 52.13966 9.57382 36016 ft 434 kts 203°
2026-05-06 14:37 52.11203 9.55575 35509 ft 435 kts 203°
2026-05-06 14:37 52.08393 9.53740 34980 ft 434 kts 203°
2026-05-06 14:37 52.05620 9.51930 34508 ft 435 kts 203°
2026-05-06 14:37 52.02782 9.50078 34048 ft 437 kts 203°
2026-05-06 14:38 51.99995 9.48261 33546 ft 439 kts 203°
2026-05-06 14:38 51.97158 9.46413 32982 ft 441 kts 202°
2026-05-06 14:38 51.94320 9.44566 32424 ft 441 kts 202°
2026-05-06 14:38 51.91504 9.42735 31850 ft 438 kts 203°
2026-05-06 14:39 51.88664 9.40891 31345 ft 435 kts 202°
2026-05-06 14:39 51.85854 9.39067 30726 ft 437 kts 204°
2026-05-06 14:39 51.83057 9.37254 30198 ft 435 kts 203°
2026-05-06 14:39 51.80264 9.35446 29655 ft 435 kts 203°
2026-05-06 14:40 51.77443 9.33620 29079 ft 432 kts 202°
2026-05-06 14:40 51.74642 9.31809 28545 ft 425 kts 201°
2026-05-06 14:40 51.71936 9.30061 27993 ft 416 kts 201°
2026-05-06 14:40 51.69271 9.28341 27434 ft 407 kts 202°
2026-05-06 14:41 51.66662 9.26660 26878 ft 399 kts 202°
2026-05-06 14:41 51.64115 9.25021 26342 ft 397 kts 203°
2026-05-06 14:41 51.61579 9.23391 25800 ft 393 kts 203°
2026-05-06 14:41 51.59048 9.21768 25242 ft 390 kts 204°
2026-05-06 14:42 51.56547 9.20166 24687 ft 386 kts 204°
2026-05-06 14:42 51.54073 9.18584 24142 ft 382 kts 204°
2026-05-06 14:42 51.51626 9.17022 23596 ft 378 kts 204°
2026-05-06 14:42 51.49182 9.15465 23054 ft 375 kts 204°
2026-05-06 14:43 51.46759 9.13923 22506 ft 371 kts 204°
2026-05-06 14:43 51.44374 9.12408 21956 ft 369 kts 204°
2026-05-06 14:43 51.42016 9.10911 21400 ft 366 kts 204°
2026-05-06 14:43 51.39678 9.09430 20853 ft 363 kts 204°
2026-05-06 14:44 51.37342 9.07953 20299 ft 359 kts 204°
2026-05-06 14:44 51.35049 9.06505 19880 ft 352 kts 204°
2026-05-06 14:44 51.32762 9.05064 19764 ft 351 kts 204°
2026-05-06 14:45 51.28239 9.02216 19781 ft 352 kts 204°
2026-05-06 14:45 51.25963 9.00785 19760 ft 351 kts 204°
2026-05-06 14:45 51.23668 8.99343 19769 ft 352 kts 204°
2026-05-06 14:45 51.21395 8.97915 19778 ft 352 kts 204°
2026-05-06 14:46 51.19100 8.96475 19782 ft 352 kts 204°
2026-05-06 14:46 51.16821 8.95046 19782 ft 352 kts 204°
2026-05-06 14:46 51.14535 8.93613 19778 ft 352 kts 204°
2026-05-06 14:46 51.12282 8.92203 19788 ft 353 kts 204°
2026-05-06 14:47 51.09990 8.90769 19792 ft 352 kts 204°
2026-05-06 14:47 51.07761 8.89378 19705 ft 345 kts 204°
2026-05-06 14:47 51.05500 8.87967 19466 ft 349 kts 204°
2026-05-06 14:47 51.03204 8.86535 19248 ft 350 kts 204°
2026-05-06 14:48 51.00952 8.85131 18986 ft 348 kts 204°
2026-05-06 14:48 50.98692 8.83724 18705 ft 346 kts 204°
2026-05-06 14:48 50.96428 8.82316 18472 ft 344 kts 203°
2026-05-06 14:48 50.94183 8.80922 18243 ft 344 kts 203°
2026-05-06 14:49 50.91957 8.79539 17955 ft 342 kts 203°
2026-05-06 14:49 50.89698 8.78137 17743 ft 343 kts 204°
2026-05-06 14:49 50.87489 8.76767 17481 ft 342 kts 204°
2026-05-06 14:49 50.85278 8.75397 17226 ft 340 kts 204°
2026-05-06 14:50 50.83046 8.74016 16969 ft 339 kts 204°
2026-05-06 14:50 50.80823 8.72641 16699 ft 338 kts 203°
2026-05-06 14:50 50.78625 8.71283 16474 ft 337 kts 203°
2026-05-06 14:50 50.76435 8.69930 16213 ft 337 kts 203°
2026-05-06 14:51 50.74220 8.68642 15967 ft 337 kts 197°
2026-05-06 14:51 50.71867 8.68513 15740 ft 342 kts 171°
2026-05-06 14:51 50.69633 8.69804 15476 ft 346 kts 160°
2026-05-06 14:51 50.67441 8.71288 15218 ft 344 kts 160°
2026-05-06 14:52 50.65222 8.72751 14975 ft 343 kts 161°
2026-05-06 14:52 50.63008 8.74168 14718 ft 342 kts 161°
2026-05-06 14:52 50.60802 8.75539 14465 ft 341 kts 162°
2026-05-06 14:52 50.58531 8.76584 14229 ft 336 kts 175°
2026-05-06 14:53 50.56260 8.76310 13986 ft 330 kts 198°
2026-05-06 14:53 50.54176 8.74628 13735 ft 327 kts 218°
2026-05-06 14:53 50.52409 8.72321 13480 ft 326 kts 221°
2026-05-06 14:53 50.50679 8.70032 13218 ft 325 kts 221°
2026-05-06 14:54 50.48943 8.67746 12973 ft 324 kts 221°
2026-05-06 14:54 50.47221 8.65478 12732 ft 323 kts 221°
2026-05-06 14:54 50.45506 8.63224 12471 ft 321 kts 221°
2026-05-06 14:54 50.43810 8.60997 12229 ft 319 kts 221°
2026-05-06 14:55 50.42091 8.58740 11965 ft 319 kts 221°
2026-05-06 14:55 50.40407 8.56533 11727 ft 318 kts 221°
2026-05-06 14:55 50.38709 8.54309 11468 ft 317 kts 221°
2026-05-06 14:55 50.37072 8.52037 11227 ft 316 kts 224°
2026-05-06 14:56 50.35457 8.49692 10986 ft 315 kts 224°
2026-05-06 14:56 50.33856 8.47374 10720 ft 313 kts 224°
2026-05-06 14:56 50.32264 8.45069 10429 ft 312 kts 224°
2026-05-06 14:56 50.30664 8.42756 10247 ft 312 kts 224°
2026-05-06 14:57 50.29070 8.40482 10010 ft 310 kts 223°
2026-05-06 14:57 50.27449 8.38281 9723 ft 308 kts 222°
2026-05-06 14:57 50.25812 8.36070 9474 ft 308 kts 222°
2026-05-06 14:57 50.24175 8.33860 9275 ft 306 kts 221°
2026-05-06 14:58 50.22520 8.31628 8992 ft 305 kts 221°
2026-05-06 14:58 50.20890 8.29432 8717 ft 304 kts 221°
2026-05-06 14:58 50.19290 8.27278 8484 ft 304 kts 221°
2026-05-06 14:58 50.17651 8.25074 8226 ft 303 kts 221°
2026-05-06 14:59 50.16051 8.22925 7974 ft 302 kts 221°
2026-05-06 14:59 50.14437 8.20759 7790 ft 301 kts 221°
2026-05-06 14:59 50.12855 8.18638 7783 ft 301 kts 221°
2026-05-06 14:59 50.11255 8.16494 7790 ft 302 kts 221°
2026-05-06 15:00 50.09655 8.14353 7784 ft 302 kts 222°
2026-05-06 15:00 50.08054 8.12213 7789 ft 302 kts 222°
2026-05-06 15:00 50.06445 8.10064 7790 ft 303 kts 222°
2026-05-06 15:00 50.04733 8.08141 7798 ft 304 kts 208°
2026-05-06 15:01 50.02683 8.07169 7788 ft 307 kts 193°
2026-05-06 15:01 50.00524 8.06538 7812 ft 307 kts 193°
2026-05-06 15:01 49.98386 8.05902 7774 ft 305 kts 193°
2026-05-06 15:01 49.96263 8.05271 7789 ft 306 kts 193°
2026-05-06 15:02 49.94149 8.04641 7789 ft 306 kts 193°
2026-05-06 15:02 49.92038 8.04013 7787 ft 307 kts 193°
2026-05-06 15:02 49.89905 8.03378 7799 ft 307 kts 193°
2026-05-06 15:02 49.87762 8.02741 7788 ft 305 kts 193°
2026-05-06 15:03 49.85635 8.02109 7796 ft 305 kts 193°
2026-05-06 15:03 49.83512 8.01479 7798 ft 305 kts 193°
2026-05-06 15:03 49.81416 8.00857 7797 ft 305 kts 193°
2026-05-06 15:03 49.79337 8.00240 7821 ft 304 kts 193°
2026-05-06 15:04 49.77226 7.99614 7798 ft 305 kts 193°
2026-05-06 15:04 49.75158 7.99001 7798 ft 304 kts 193°
2026-05-06 15:04 49.73071 7.98384 7802 ft 304 kts 193°
2026-05-06 15:04 49.70990 7.97768 7797 ft 304 kts 193°
2026-05-06 15:05 49.68921 7.97157 7798 ft 305 kts 193°
2026-05-06 15:05 49.66811 7.96533 7801 ft 305 kts 193°
2026-05-06 15:05 49.64748 7.95925 7778 ft 304 kts 193°
2026-05-06 15:05 49.62649 7.95326 7820 ft 306 kts 191°
2026-05-06 15:06 49.60477 7.95366 7798 ft 310 kts 173°
2026-05-06 15:06 49.58411 7.96503 7801 ft 315 kts 153°
2026-05-06 15:06 49.56705 7.98636 7774 ft 303 kts 134°
2026-05-06 15:06 49.55593 8.01390 7312 ft 295 kts 113°
2026-05-06 15:07 49.55051 8.04484 6956 ft 279 kts 104°
2026-05-06 15:07 49.54624 8.07457 6600 ft 268 kts 104°
2026-05-06 15:07 49.54221 8.10222 6395 ft 252 kts 104°
2026-05-06 15:07 49.53836 8.12857 6086 ft 243 kts 104°
2026-05-06 15:08 49.53460 8.15421 5783 ft 228 kts 104°
2026-05-06 15:08 49.53095 8.17903 5474 ft 232 kts 104°
2026-05-06 15:08 49.52723 8.20424 5111 ft 227 kts 103°
2026-05-06 15:08 49.52358 8.22897 4826 ft 223 kts 103°
2026-05-06 15:09 49.52002 8.25302 4514 ft 210 kts 103°
2026-05-06 15:09 49.51663 8.27587 4216 ft 206 kts 102°
2026-05-06 15:09 49.51335 8.29794 3936 ft 204 kts 102°
2026-05-06 15:09 49.51010 8.31982 3653 ft 205 kts 102°
2026-05-06 15:10 49.50684 8.34170 3376 ft 203 kts 102°
2026-05-06 15:10 49.50184 8.36227 3099 ft 204 kts 126°
2026-05-06 15:10 49.49088 8.37571 2999 ft 198 kts 161°
2026-05-06 15:10 49.47711 8.38195 3010 ft 196 kts 169°
2026-05-06 15:11 49.46354 8.38735 3025 ft 179 kts 169°
2026-05-06 15:11 49.45205 8.39210 3074 ft 160 kts 170°
2026-05-06 15:11 49.44082 8.39659 3013 ft 157 kts 170°
2026-05-06 15:11 49.42989 8.40100 3007 ft 155 kts 169°
2026-05-06 15:12 49.41924 8.40533 2942 ft 154 kts 170°
2026-05-06 15:12 49.40893 8.40955 2678 ft 137 kts 170°
2026-05-06 15:12 49.39923 8.41349 2467 ft 138 kts 171°
2026-05-06 15:12 49.39012 8.41723 2306 ft 125 kts 171°
2026-05-06 15:13 49.38067 8.42099 1987 ft 135 kts 171°
2026-05-06 15:13 49.37183 8.42464 1944 ft 129 kts 171°
2026-05-06 15:13 49.36246 8.42852 1609 ft 129 kts 168°
2026-05-06 15:13 49.35371 8.43265 1362 ft 127 kts 167°
2026-05-06 15:14 49.34494 8.43641 1161 ft 123 kts 170°
2026-05-06 15:14 49.33627 8.43979 972 ft 122 kts 172°
2026-05-06 15:14 49.32725 8.44316 780 ft 128 kts 169°
2026-05-06 15:14 49.31834 8.44617 599 ft 120 kts 169°
2026-05-06 15:15 49.30989 8.44972 364 ft 122 kts 169°
2026-05-06 15:15 49.30260 8.45263 315 ft 92 kts 166°
2026-05-06 15:15 49.29987 8.45373 313 ft 18 kts 164°
2026-05-06 15:15 49.29937 8.45396 313 ft 6 kts 149°
2026-05-06 15:16 49.29956 8.45441 313 ft 5 kts 50°
2026-05-06 15:16 49.29985 8.45491 313 ft 5 kts 32°
2026-05-06 15:16 49.30028 8.45482 313 ft 8 kts 342°
2026-05-06 15:16 49.30103 8.45451 313 ft 13 kts 346°
2026-05-06 15:17 49.30186 8.45418 313 ft 10 kts 344°
2026-05-06 15:17 49.30260 8.45388 313 ft 6 kts 345°
2026-05-06 15:17 49.30324 8.45362 313 ft 11 kts 346°
2026-05-06 15:17 49.30363 8.45350 313 ft 4 kts 346°
2026-05-06 15:18 49.30390 8.45381 314 ft 3 kts 96°
2026-05-06 15:18 49.30380 8.45383 314 ft 0 kts 244°
2026-05-06 15:18 49.30379 8.45380 314 ft 0 kts 255°